GEESAT 5-03

导读

GEESAT 5-03是中国于2025年9月8日成功发射的低轨卫星,属于吉利未来出行星座GEESAT 5组卫星,目前已在轨稳定运行。卫星主要面向卫星物联网试验与星间通信技术验证,可服务于智能网联汽车、海洋渔业、应急救援、农林牧渔等多场景应用,同时具备环境监测方向的地球观测能力,是中国低轨卫星互联网星座建设过程中的重要组成节点。

基本信息
目录编号:
65552
目录名称:
GEESAT 5-03
国际标识:
2025-201C
轨道中心:
EARTH
卫星名称:
GEESAT 5-03
卫星全名:
GEESAT 5-03
卫星状态:
在轨 (已飞行277 天)
发射日期:
2025-09-08 UTC
国别 :
中国 (CN)
星等 :
--
轨道信息
数据来源 国际轨道数据
星历时间: 2026-06-12T07:58:07+0800
20小时前
查看轨道信息
半长轴: 6994.346km
偏心率: 0.0010771
轨道倾角: 49.987°
近地点辐角 243.690°
升交点赤经 63.427°
平近点角 116.294°
近地点: 608.675km
远地点: 623.743km
周期: 97.024分钟
每日圈数: 14.841649
详细信息
使用方式:
暂无
2D轨道图
3D轨道图
轨道高度分析图
轨道倾角分析图
轨道综合分析图
查看轨道综合分析图